#timestamp,LO_Frequency,Hit,StdDev 
1571083215.1,286046998.8,N
1571083235.9,286047001.2,N
1571083255.7,286046999.6,N
1571083275.5,286046998.4,N
1571083295.4,286046998.1,N
1571083315.2,286046996.9,N
1571083335.0,286046998.8,N
1571083335.9,286046998.8,N
1571083355.8,286046996.7,N
1571083375.6,286046999.5,N
1571083395.5,286046999.4,N
1571083415.3,286047000.3,N
1571083435.1,286046999.9,N
1571083455.9,286047002.3,N
1571083475.7,286047002.1,N
1571083495.5,286046999.9,N
1571083515.4,286047002.2,N
1571083535.2,286047001.6,N
1571083555.1,286047004.1,N
1571083556.0,286047004.1,N
1571083575.8,286047004.4,N
1571083595.6,286047000.6,N
1571083615.5,286046999.4,N
1571083635.3,286046998.1,N
1571083655.2,286047000.8,N
1571083675.9,286046998.4,N
1571083695.7,286046999.6,N
1571083715.6,286046998.4,N
1571083735.4,286046999.5,N
1571083755.3,286046996.7,N
1571083775.1,286046999.5,N
1571083776.0,286046999.5,N
1571083795.8,286046996.9,N
1571083815.7,286046998.2,N
1571083835.5,286046997.9,N
1571083855.3,286046997.1,N
1571083875.2,286047000.9,N
1571083895.0,286047000.2,N
1571083895.9,286047000.2,N
1571083915.8,286047002.5,N
1571083935.6,286046999.8,N
1571083955.4,286046998.1,N
1571083975.3,286046997.2,N
1571083995.1,286046998.6,N
1571084015.9,286047000.2,N
1571084035.7,286047001.6,N
1571084055.5,286047002.2,N
1571084075.4,286047003.1,N
1571084095.2,286047002.6,N
1571084115.0,286047000.3,N
1571084116.0,286047000.3,N
1571084135.8,286047004.4,N
1571084155.6,286047001.7,N
1571084175.5,286047001.3,N
1571084195.3,286047000.2,N
1571084215.1,286046998.9,N
1571084235.9,286046999.4,N
1571084255.7,286047000.3,N
1571084275.6,286047000.2,N
1571084295.4,286047000.2,N
1571084315.2,286046999.3,N
1571084335.1,286046998.4,N
1571084336.0,286046998.4,N
1571084355.8,286046997.0,N
1571084375.7,286046999.2,N
1571084395.5,286047001.1,N
1571084415.5,286046999.8,N
1571084435.4,286047002.7,N
1571084455.2,286047000.8,N
1571084475.0,286047000.7,N
1571084475.9,286047000.7,N
1571084495.8,286046998.6,N
1571084515.6,286046999.7,N
1571084535.4,286047002.8,N
1571084555.3,286047002.6,N
1571084575.1,286047000.2,N
1571084595.9,286047002.5,N
1571084615.7,286047002.8,N
1571084635.5,286047002.7,N
1571084655.4,286047004.3,N
1571084675.2,286047002.4,N
1571084695.0,286047004.0,N
1571084696.0,286047004.0,N
1571084715.8,286047001.8,N
1571084735.6,286047001.9,N
1571084755.5,286047002.5,N
1571084775.3,286046999.7,N
1571084795.1,286047000.7,N
1571084815.9,286047001.2,N
1571084835.7,286047001.7,N
1571084855.6,286047004.1,N
1571084875.4,286047003.0,N
1571084895.2,286047009.1,Y
1571084915.1,286047004.1,P
1571084916.0,286047004.1,P
1571084935.8,286047002.7,N
1571084955.7,286047000.0,N
1571084975.5,286047002.0,N
1571084995.3,286047002.4,N
1571085015.2,286047001.9,N
1571085035.0,286047004.3,Y
1571085035.9,286047004.3,P
1571085055.8,286047000.9,N
1571085075.6,286046999.4,N
1571085095.4,286046998.7,N
1571085115.3,286047000.3,N
1571085135.1,286046998.4,N
1571085155.8,286046999.6,N
1571085175.7,286046995.6,N
1571085195.5,286046995.6,N
1571085215.4,286046994.9,N
1571085235.2,286046999.2,N
1571085255.0,286046999.1,N
1571085255.9,286046999.1,N
1571085275.8,286046996.9,N
1571085295.6,286046999.6,N
1571085315.5,286046999.0,N
1571085335.3,286046999.5,N
1571085355.1,286046995.7,N
1571085375.9,286046997.1,N
1571085395.7,286046997.3,N
1571085415.5,286046993.5,N
1571085435.4,286046995.9,N
1571085455.2,286046995.1,N
1571085475.1,286046996.4,N
1571085476.0,286046996.4,N
1571085495.8,286046995.7,N
1571085515.7,286046993.7,N
1571085535.5,286046997.8,N
1571085555.3,286046997.2,N
1571085575.2,286046996.1,N
1571085595.0,286046995.8,N
1571085595.9,286046995.8,N
1571085615.7,286046997.9,N
1571085635.6,286046995.1,N
1571085655.4,286046997.8,N
1571085675.3,286046996.5,N
1571085695.1,286046996.6,N
1571085715.8,286046999.1,N
1571085735.7,286046999.4,N
1571085755.5,286046996.7,N
1571085775.4,286046999.5,N
1571085795.2,286046998.3,N
1571085815.0,286046998.5,N
1571085815.9,286046998.5,N
1571085835.8,286046998.1,N
1571085855.6,286047000.0,N
1571085875.5,286047000.9,N
1571085895.3,286047000.7,N
1571085915.1,286047000.0,N
1571085935.9,286047002.5,N
1571085955.7,286047003.9,N
1571085975.6,286047004.0,N
1571085995.4,286047003.2,N
1571086015.2,286047003.9,N
1571086035.1,286047004.3,N
1571086036.0,286047004.3,N
1571086055.8,286047001.7,N
1571086075.6,286047003.9,N
1571086095.5,286047001.7,N
1571086115.3,286047004.1,N
1571086135.2,286047003.9,N
1571086155.9,286047003.1,N
1571086175.7,286047001.5,N
1571086195.6,286047001.0,N
1571086215.4,286046998.6,N
1571086235.3,286047000.8,N
1571086255.1,286047000.7,N
1571086256.0,286047000.7,N
1571086275.8,286046998.5,N
1571086295.7,286046999.9,N
1571086315.5,286047001.0,N
1571086335.3,286047000.5,N
1571086355.2,286046998.8,N
1571086375.0,286046999.3,N
1571086375.9,286046999.3,N
1571086395.8,286046999.3,N
1571086415.6,286046999.0,N
1571086435.4,286047001.1,N
1571086455.3,286046999.9,N
1571086475.1,286047001.0,N
1571086495.9,286047002.8,N
1571086515.7,286047000.3,N
1571086535.5,286046998.1,N
1571086555.4,286047001.1,N
1571086575.2,286046998.2,N
1571086595.1,286046998.7,N
1571086596.0,286046998.7,N
1571086615.8,286046996.5,N
1571086635.6,286046997.0,N
1571086685.5,286046996.2,E
1571086695.4,286046996.7,N
1571086715.3,286046998.2,P
1571086735.1,286046998.2,N
1571086755.8,286046998.4,N
1571086775.7,286046999.5,N
1571086795.5,286046998.6,N
